Regional Weather Roundup
Issued by NWS

Home | Current Version | Previous Version | Graphics & Text | Print | Product List | Glossary On
Versions: 1 2 3 4 5 6 7 8 9 10 11 12 13 14 15 16 17 18 19 20 21 22 23 24 25 26 27 28 29 30 31 32 33 34 35 36 37 38 39 40 41 42 43 44 45 46 47 48 49 50
000
ASUS43 KBIS 190610
RWRND

NORTH DAKOTA REGIONAL WEATHER ROUNDUP
NATIONAL WEATHER SERVICE BISMARCK ND
1200 AM CST MON FEB 19 2018

NOTE: "FAIR" INDICATES FEW OR NO CLOUDS BELOW 12,000 FEET WITH NO
SIGNIFICANT WEATHER AND/OR OBSTRUCTIONS TO VISIBILITY.


NDZ001>003-009>011-017-190700-
NORTHWEST NORTH DAKOTA

CITY           SKY/WX    TMP DP  RH WIND       PRES   REMARKS
WILLISTON      CLOUDY    -7 -10  87 CALM      30.16R
6HR MIN TEMP: -10; 6HR MAX TEMP:   7;

MINOT          CLOUDY    -3 -12  65 NW6       30.13R WCI -15
MINOT AFB      CLOUDY     0 -11  59 N8        30.13R WCI -15
$$

NDZ018>021-031>035-040>046-190700-
SOUTHWEST NORTH DAKOTA

CITY           SKY/WX    TMP DP  RH WIND       PRES   REMARKS
BISMARCK       CLOUDY     8  -1  66 N8        30.13R WCI  -4
6HR MIN TEMP:   8; 6HR MAX TEMP:  11; 6HR PCP: TRACE;

DICKINSON      LGT SNOW   5  -1  76 N6        30.05R WCI  -6
GARRISON         N/A      2  -6  69 N9        30.12R WCI -13
6HR MIN TEMP:   2; 6HR MAX TEMP:   8;

HETTINGER ARPT LGT SNOW   4  -1  80 N8        30.05R WCI  -9
$$

NDZ004>008-012>016-024-026-027-054-190700-
NORTHEAST NORTH DAKOTA

CITY           SKY/WX    TMP DP  RH WIND       PRES   REMARKS
GRAND FORKS    FAIR       8  -2  63 N17       30.10R WCI -10
GRND FRKS AFB  FAIR       6  -4  63 N16       30.11R WCI -12
DEVILS LAKE    FAIR       3  -2  79 N10       30.10R WCI -12
$$

NDZ022-023-025-028>030-036>039-047>053-190700-
SOUTHEAST NORTH DAKOTA

CITY           SKY/WX    TMP DP  RH WIND       PRES   REMARKS
FARGO          FAIR       9   3  77 N18       30.05R WCI -10
6HR MIN TEMP:   9; 6HR MAX TEMP:  13;

JAMESTOWN      CLOUDY     8   0  69 N17       30.05R WCI -10
$$





USA.gov is the U.S. government's official web portal to all federal, state and local government web resources and services.